Simultaneous Nadir Overpasses (SNOs) Predictions

Prediction of SNOs between NOAA-20 and PACE Satellite Orbit:

Table of predicted SNOs for the next 14.0 days since TLE Epoch: 6/7/2025
Index Date (NOAA-20) Time (NOAA-20) Lat,Lon (NOAA-20) SZA (NOAA-20 ) Date (PACE) Time (PACE) Lat,Lon (PACE) SZA (PACE ) Distance(km) Time Diff (sec)
1 06/07/2025 11:01:05 79.55, -20.31 58.72 06/07/2025 11:01:33 79.54, -20.25 58.70 1.16 28
2 06/07/2025 11:51:43 -79.32, 148.82 121.66 06/07/2025 11:50:38 -79.31, 148.94 121.65 2.50 65
3 06/09/2025 15:27:35 79.65, -87.83 58.73 06/09/2025 15:28:47 79.66, -87.83 58.70 0.36 72
4 06/09/2025 16:18:13 -79.43, 81.35 121.65 06/09/2025 16:17:52 -79.43, 81.41 121.66 1.41 21
5 06/11/2025 20:44:42 -79.51, 14.11 121.66 06/11/2025 20:45:05 -79.51, 14.06 121.67 1.07 23
6 06/11/2025 21:35:20 79.27,-176.68 57.94 06/11/2025 21:34:09 79.27,-176.70 57.97 0.46 71
7 06/14/2025 01:11:14 -79.68, -53.99 121.47 06/14/2025 01:12:20 -79.68, -53.91 121.51 1.57 66
8 06/14/2025 02:01:52 79.45, 115.28 58.13 06/14/2025 02:01:24 79.45, 115.37 58.13 1.80 28
9 06/16/2025 06:28:22 79.57, 47.73 58.25 06/16/2025 06:28:37 79.56, 47.85 58.22 2.69 15
10 06/16/2025 07:16:28 -72.62,-117.40 130.61 06/16/2025 07:15:16 -72.23,-120.00 130.81 97.52 72
11 06/18/2025 10:54:52 79.68, -19.86 58.41 06/18/2025 10:55:50 79.67, -19.75 58.36 2.30 58
12 06/18/2025 11:45:28 -79.39, 149.86 122.09 06/18/2025 11:44:54 -79.40, 149.79 122.06 1.71 34



Historial Predications of SNOs between NOAA-20 and PACE
